EW5922 Weather Reports


time (UTC)temp
C
wind
direction
speed
KPH
gust
KPH
rain 1hr
cm
rain 24hr
cm
rain mn
cm
humidity
%
barometer
mb
20260504033631 11 240 0.0 3.2 0.00 0.00 0.00 51 1013.2
20260504032119 11 244 0.0 4.8 0.00 0.00 0.00 50 1013.3
20260504031613 11 230 0.0 4.8 0.00 0.00 0.00 50 1013.1
20260504031108 11 243 1.6 4.8 0.00 0.00 0.00 49 1013.2
20260504030608 11 239 0.0 4.8 0.00 0.00 0.00 49 1013.3
20260504025607 12 242 0.0 3.2 0.00 0.00 0.00 48 1013.1
20260504025107 12 257 1.6 3.2 0.00 0.00 0.00 47 1013.2
20260504024607 12 276 0.0 4.8 0.00 0.00 0.00 46 1013.2
20260504024107 12 230 0.0 4.8 0.00 0.00 0.00 45 1013.3
20260504023607 12 195 1.6 4.8 0.00 0.00 0.00 45 1013.3
20260504022607 12 236 1.6 6.4 0.00 0.00 0.00 44 1013.1
20260504022108 12 255 1.6 4.8 0.00 0.00 0.00 44 1013.2
20260504021607 12 248 0.0 4.8 0.00 0.00 0.00 45 1013.4
20260504021107 12 221 1.6 4.8 0.00 0.00 0.00 45 1013.1
20260504020607 12 183 1.6 4.8 0.00 0.00 0.00 45 1013.4
20260504015554 12 253 0.0 4.8 0.00 0.00 0.00 45 1013.3
20260504015056 12 278 1.6 3.2 0.00 0.00 0.00 44 1013.2
20260504013542 12 235 0.0 1.6 0.00 0.00 0.00 44 1013.2
20260504013035 12 239 1.6 1.6 0.00 0.00 0.00 45 1013.2
20260504012530 12 238 0.0 1.6 0.00 0.00 0.00 44 1013.1
20260504012031 12 245 0.0 1.6 0.00 0.00 0.00 43 1012.9
20260504011523 12 231 0.0 3.2 0.00 0.00 0.00 42 1012.8
20260504011018 13 234 0.0 4.8 0.00 0.00 0.00 41 1012.9
20260504010518 13 185 3.2 4.8 0.00 0.00 0.00 41 1012.9
20260504010011 13 256 1.6 4.8 0.00 0.00 0.00 40 1012.6
20260504005007 13 229 0.0 3.2 0.00 0.00 0.00 41 1012.3
20260504004459 13 238 0.0 4.8 0.00 0.00 0.00 40 1012.3
20260504003955 13 240 0.0 4.8 0.00 0.00 0.00 39 1012.5
20260504003455 14 238 1.6 4.8 0.00 0.00 0.00 38 1012.5
20260504001955 14 232 0.0 9.7 0.00 0.00 0.00 38 1012.1
20260504001454 14 267 4.8 9.7 0.00 0.00 0.00 37 1011.8
20260504000953 14 261 3.2 4.8 0.00 0.00 0.00 37 1011.9
20260504000455 14 205 1.6 9.7 0.00 0.00 0.00 37 1011.6
20260503235954 14 303 0.0 9.7 0.00 0.00 0.00 37 1011.7
20260503234947 14 217 1.6 6.4 0.00 0.00 0.00 36 1011.9
20260503234442 15 240 0.0 11.3 0.00 0.00 0.00 35 1011.9
20260503233942 15 255 1.6 11.3 0.00 0.00 0.00 35 1011.7
20260503232930 15 257 3.2 12.9 0.00 0.00 0.00 33 1011.6
20260503232430 15 221 4.8 12.9 0.00 0.00 0.00 33 1011.5
20260503231924 15 239 3.2 16.1 0.00 0.00 0.00 34 1011.6
20260503231418 15 261 3.2 16.1 0.00 0.00 0.00 33 1011.4
20260503230919 15 330 1.6 9.7 0.00 0.00 0.00 33 1011.5
20260503230411 16 232 3.2 12.9 0.00 0.00 0.00 33 1011.4
20260503225906 16 272 3.2 12.9 0.00 0.00 0.00 33 1011.5
20260503225406 16 259 6.4 12.9 0.00 0.00 0.00 33 1011.3
20260503224407 16 175 6.4 12.9 0.00 0.00 0.00 32 1011.1
20260503223906 16 269 6.4 12.9 0.00 0.00 0.00 32 1011.3
20260503223406 16 233 1.6 14.5 0.00 0.00 0.00 33 1011.3
20260503222905 16 236 8.0 14.5 0.00 0.00 0.00 31 1011.4
20260503222407 16 243 4.8 14.5 0.00 0.00 0.00 32 1011.3
20260503221406 16 279 6.4 16.1 0.00 0.00 0.00 31 1011.3
20260503220408 16 259 1.6 14.5 0.00 0.00 0.00 30 1011.2
20260503215907 16 235 4.8 17.7 0.00 0.00 0.00 31 1011.4
20260503215407 16 235 9.7 17.7 0.00 0.00 0.00 30 1011.2
20260503214905 16 247 3.2 22.5 0.00 0.00 0.00 31 1011.2
20260503214406 16 260 6.4 22.5 0.00 0.00 0.00 30 1011.1
20260503213906 17 246 14.5 22.5 0.00 0.00 0.00 30 1011.1
20260503213407 17 226 3.2 14.5 0.00 0.00 0.00 30 1011.2
20260503212907 17 237 3.2 14.5 0.00 0.00 0.00 29 1011.3
20260503212407 16 236 1.6 14.5 0.00 0.00 0.00 30 1011.1
20260503211908 16 264 9.7 14.5 0.00 0.00 0.00 29 1011.2
20260503211406 16 303 3.2 24.1 0.00 0.00 0.00 30 1011.1
20260503210907 16 275 9.7 24.1 0.00 0.00 0.00 31 1011.2
20260503210407 16 250 6.4 22.5 0.00 0.00 0.00 31 1011.2
20260503204900 16 228 4.8 22.5 0.00 0.00 0.00 30 1011.1
20260503204355 15 351 6.4 20.9 0.00 0.00 0.00 31 1010.7
20260503203855 15 264 6.4 17.7 0.00 0.00 0.00 31 1010.9
20260503203355 16 230 1.6 20.9 0.00 0.00 0.00 31 1010.9
20260503202855 16 215 9.7 22.5 0.00 0.00 0.00 30 1011.3
20260503202356 16 358 9.7 17.7 0.00 0.00 0.00 30 1011.1
20260503201854 15 258 6.4 20.9 0.00 0.00 0.00 32 1011.3
20260503201353 16 268 6.4 20.9 0.00 0.00 0.00 31 1011.1
20260503200854 16 264 3.2 22.5 0.00 0.00 0.00 32 1011.3
20260503200356 16 235 12.9 22.5 0.00 0.00 0.00 31 1011.2
20260503195856 16 311 6.4 24.1 0.00 0.00 0.00 31 1011.2
20260503195356 16 286 14.5 24.1 0.00 0.00 0.00 31 1011.3
20260503194855 16 285 11.3 16.1 0.00 0.00 0.00 31 1011.3
20260503194354 16 133 6.4 20.9 0.00 0.00 0.00 33 1011.7
20260503193354 15 266 6.4 22.5 0.00 0.00 0.00 34 1011.6
20260503192856 15 246 8.0 22.5 0.00 0.00 0.00 33 1011.6
20260503192354 16 314 9.7 16.1 0.00 0.00 0.00 33 1011.9
20260503191348 15 255 8.0 27.4 0.00 0.00 0.00 34 1012.0
20260503190342 15 237 6.4 20.9 0.00 0.00 0.00 33 1011.5
20260503185835 15 233 9.7 27.4 0.00 0.00 0.00 33 1011.8
20260503185318 15 292 6.4 27.4 0.00 0.00 0.00 35 1011.8
20260503184811 15 242 6.4 29.0 0.00 0.00 0.00 35 1012.0
20260503184306 15 231 17.7 29.0 0.00 0.00 0.00 35 1012.0
20260503183806 14 287 4.8 22.5 0.00 0.00 0.00 38 1012.0
20260503183306 13 211 9.7 22.5 0.00 0.00 0.00 37 1012.1
20260503182806 15 239 6.4 17.7 0.00 0.00 0.00 36 1012.2
20260503182306 13 235 3.2 14.5 0.00 0.00 0.00 37 1012.3
20260503181806 14 277 4.8 17.7 0.00 0.00 0.00 37 1012.2
20260503180806 13 346 6.4 14.5 0.00 0.00 0.00 38 1012.1
20260503180306 13 250 3.2 16.1 0.00 0.00 0.00 38 1012.4
20260503175259 13 225 1.6 24.1 0.00 0.00 0.00 40 1012.2
20260503174754 13 331 9.7 24.1 0.00 0.00 0.00 39 1012.2
20260503173747 12 352 6.4 25.7 0.00 0.00 0.00 40 1012.4
20260503173242 12 222 3.2 24.1 0.00 0.00 0.00 40 1012.4
20260503172242 12 175 4.8 20.9 0.00 0.00 0.00 40 1012.5
20260503171742 13 233 6.4 14.5 0.00 0.00 0.00 42 1012.5
20260503170743 12 271 6.4 17.7 0.00 0.00 0.00 42 1012.5
20260503170236 12 275 3.2 17.7 0.00 0.00 0.00 41 1012.6
20260503150730 11 294 8.0 17.7 0.00 0.00 0.00 45 1013.2
20260503150229 10 244 3.2 17.7 0.00 0.00 0.00 46 1013.0
20260503140206 10 224 4.8 20.9 0.00 0.00 0.00 50 1013.2
20260503131154 9 327 1.6 20.9 0.00 0.00 0.00 56 1012.8
20260503130654 9 21 11.3 20.9 0.00 0.00 0.00 55 1013.1
20260503130154 8 258 0.0 17.7 0.00 0.00 0.00 56 1013.2
20260503110606 7 238 3.2 11.3 0.00 0.00 0.00 59 1012.7
20260503110106 7 275 3.2 11.3 0.00 0.00 0.00 59 1012.6
20260503081518 8 283 1.6 4.8 0.00 0.00 0.00 55 1011.0
20260503081017 8 234 0.0 6.4 0.00 0.00 0.00 55 1011.4
20260503080516 8 325 1.6 6.4 0.00 0.00 0.00 54 1011.1
20260503072517 9 298 3.2 9.7 0.00 0.00 0.00 52 1011.0
20260503072017 9 329 1.6 9.7 0.00 0.00 0.00 51 1011.1
20260503071517 9 253 3.2 9.7 0.00 0.00 0.00 51 1011.1
20260503071017 9 245 3.2 9.7 0.00 0.00 0.00 50 1011.0
20260503070518 9 68 3.2 9.7 0.00 0.00 0.00 50 1011.0
20260503054953 10 284 0.0 12.9 0.00 0.00 0.00 48 1011.2
20260503054453 10 274 3.2 12.9 0.00 0.00 0.00 47 1011.2
20260503053953 10 255 3.2 11.3 0.00 0.00 0.00 47 1011.4
20260503053453 10 44 1.6 12.9 0.00 0.00 0.00 47 1011.5
20260503052953 10 273 3.2 12.9 0.00 0.00 0.00 47 1011.3
20260503052454 10 334 4.8 12.9 0.00 0.00 0.00 46 1011.4
20260503051954 10 266 9.7 12.9 0.00 0.00 0.00 46 1011.5
20260503051453 11 303 3.2 11.3 0.00 0.00 0.00 46 1011.3
20260503050952 11 141 1.6 11.3 0.00 0.00 0.00 46 1011.4
20260503050453 11 330 3.2 11.3 0.00 0.00 0.00 46 1011.5
20260503045453 11 178 1.6 9.7 0.00 0.00 0.00 46 1011.7
20260503044953 11 324 3.2 12.9 0.00 0.00 0.00 45 1011.8
20260503043941 11 318 4.8 11.3 0.00 0.00 0.00 46 1011.7
20260503043441 11 347 6.4 9.7 0.00 0.00 0.00 46 1011.6
20260503042941 11 329 4.8 6.4 0.00 0.00 0.00 47 1011.9
20260503041941 11 331 3.2 4.8 0.00 0.00 0.00 46 1011.7
20260503041440 11 257 1.6 4.8 0.00 0.00 0.00 46 1011.7
20260503040942 11 265 1.6 6.4 0.00 0.00 0.00 46 1011.8
20260503040442 11 279 3.2 6.4 0.00 0.00 0.00 46 1011.9
20260503035441 11 270 3.2 6.4 0.00 0.00 0.00 46 1011.9
20260503034941 11 293 3.2 6.4 0.00 0.00 0.00 45 1011.6
20260503034441 11 266 1.6 9.7 0.00 0.00 0.00 45 1011.6
20260503033941 11 271 4.8 9.7 0.00 0.00 0.00 45 1011.7